Location: Beutels
(47.8767°N, 9.8584°E)
Time: 07:06:59
(UTC+00:00)

SL-24 R/B - Pass Details

Date: 19 May 2025
Orbit: 594 x 1188 km, 97.8° (Epoch: 15 June)

Event Time Altitude Azimuth Distance (km) Brightness Sun altitude
Exits shadow 20:30:51 18° 159° (SSE) 1,511 6.0 -12.6°
Maximum altitude 20:33:56 78° 75° (ENE) 615 4.5 -12.9°
Drops below altitude 10° 20:38:05 10° 349° (N) 1,955 8.2 -13.4°
Sets 20:40:17 0° 348° (NNW) 2,890 9.2 -13.6°
